Location: Newark
(40.9833°N, 0.0333°W)
Time: 01:05:17
(UTC+00:00)

Altair - Pass Details

Date: 30 October 2020
Orbit: 1502 x 1682 km, 47.2° (Epoch: 02 December)

Event Time Altitude Azimuth Distance (km) Brightness Sun altitude
Rises 13:22:15 0° 286° (WNW) 4,837 10.3 30.4°
Reaches altitude 10° 13:27:51 10° 261° (W) 3,883 10.2 29.9°
Maximum altitude 13:31:37 13° 238° (WSW) 3,681 10.7 29.6°
Drops below altitude 10° 13:35:25 10° 215° (SW) 3,915 11.3 29.2°
Sets 13:41:12 0° 190° (S) 4,914 11.2 28.6°
